{"data":{"norad_id":64912,"intl_designator":"2025-157J","name":"STARLINK-34711","alt_names":[],"object_type":"PAYLOAD","status":"ACTIVE","operator":null,"country":"US","launch_date":"2025-07-26","launch_site_code":"AFETR","launch_vehicle":null,"mission":null,"orbit_class":"UNKNOWN","rcs_meters":null,"size_class":null,"mass_kg":null,"dimensions":null,"purposes":["comms"],"wikipedia_slug":null,"has_3d_model":false,"image_url":null,"decayed_at":null,"tle_current":{"epoch":"2026-05-24T23:42:55.714176Z","epoch_age_seconds":73131,"freshness":"FRESH","line1":"1 64912U 25157J   26144.98814484  .00030972  00000+0  10533-2 0  9999","line2":"2 64912  53.1590 351.3983 0001141  72.5503 287.5622 15.30205520 47802","mean_motion":15.3020552,"eccentricity":0.0001141,"inclination_deg":53.159,"raan_deg":351.3983,"arg_perigee_deg":72.5503,"mean_anomaly_deg":287.5622,"bstar":0.0010533,"rev_number":4780,"period_min":94.105006234718,"perigee_km":474.4166221533,"apogee_km":475.98055333442,"semimajor_km":6853.3355877439,"source":"CELESTRAK","updated_at":"2026-05-25T13:38:20.621099Z"}}}